Showing default

OPS 7034 (TRANSIT 18), 3133

Orbit data source: Space-Track

OPS 7034 (TRANSIT 18), 3133 is a payload satellite owned by USN NAVAIR (US) in LEO that was launched on Sat, 02 Mar 1968 UTC via an SCOUT A launch vehicle from the Air Force Western Test Range (AFWTR). Payload-class satellites include a variety of spacecraft equipped with specific instruments for various scientific and technological missions. These include communications satellites like Starlink; space stations such as the ISS; scientific satellites like the Hubble; Earth observation satellites from companies like Planet Labs, Umbra, and HawkEye 360; GPS; miniature CubeSats for education and research; and military/defense satellites.

Loading next visibility...
Identifier
3133, 1968-012A
Orbit
LEO
Country
Flag of USUS
Related business
Manufacturer
RCA/East Windsor
Mission
Spacecraft
Bus & Motor
TRANSIT 5, Unknown motor
Mass
60 kg wet, 60 kg dry
Launch date (UTC)
1968-03-02 (58 years ago)
Launch vehicle
SCOUT A
Launch site
Air Force Western Test Range (AFWTR)
Object type
Payload
Rocket body
Debris
Shape & HBR
Unknown
Radar Cross Section
Large (>1 m²)

Expand to show TLE details & history
Last TLE update: 8 hours ago

TLE from 8 hours ago
0 OPS 7034 (TRANSIT 18)
1  3133U 68012A   26123.68881736  .00000088  00000-0  11806-3 0  9993
2  3133  90.0238 273.9867 0075678 118.8134 253.0150 13.51601243588367
Epoch: 2026-05-03T16:31Z
TLE epoch observation values (Epoch: 2026-05-03T16:31:53.819Z)
Latitude
10.95159°
Longitude
164.4191°
Altitude
1,085.427 km
Speed
7.302 km/s
True Right ascension
18h 15m 55s
True Declination
10° 53' 26"
Sunlit
Object was in daylight at epoch
Visualization orbit readout
Latitude
Unknown
Longitude
Unknown
Altitude
Unknown
Speed
Unknown
Apparent Right ascension
Unknown
Apparent Declination
Unknown
Sunlit
N/A
Visualization observer readout
Local Sidereal Time
08:17:17
Azimuth
Unknown
Elevation
Unknown
Doppler factor
Unknown
Orbital elements
Apogee altitude
1,119.736 km
Perigee altitude
1,007.104 km
Semi-major axis
7,441.557 km
Eccentricity
0.00757
Inclination
90.0238°
RAAN
273.9867°
Arg. of periapsis
118.8134°
True anomaly
252.18793°
Mean anomaly
253.015°
Eccentric anomaly
252.60124°
Mean motion
3.38102 °/min
Orbital period
106.48 mins
BSTAR
0.00011806
Loading maneuver chart data...
Computing Atmospheric mass density...
Loading historical data...
Loading historical data...
Loading historical data...
Loading historical data...
Loading historical data...
Loading historical data...
Loading historical data...

Documentation

Showing up to 5 results
|